QPF
0.00 0.00 0.00 0.00 0.00 0.00 0.00 0.00 0.00 0.00 0.00 0.00 0.00 0.00 0.00 0.00 0.00 0.00 0.00 0.00 0.00 0.00 0.00 0.00 0.00 0.00 0.00
0.00 0.00 0.00 0.00 0.00 0.00 0.00 0.00 0.00 0.00 0.00 0.00 0.00 0.00 0.00 0.00 0.00 0.00 0.00 0.00 0.00 0.00 0.00 0.00 0.00 0.00 0.00
0.00 0.00 0.00 0.00 0.00 0.00 0.00 0.00 0.00 0.00 0.00 0.00 0.00 0.00 0.00 0.00 0.00 0.00 0.00 0.00 0.00 0.00 0.00 0.00 0.00 0.00 0.00
0.00 0.00 0.00 0.00 0.00 0.00 0.00 0.00 0.00 0.00 0.00 0.00 0.00 0.00 0.00 0.00 0.00 0.00 0.00 0.00 0.00 0.00 0.00 0.00 0.00 0.00 0.00
0.00 0.00 0.00 0.00 0.00 0.00 0.00 0.00 0.00 0.00 0.00 0.00 0.00 0.00 0.00 0.00 0.00 0.00 0.00 0.00 0.00 0.00 0.00 0.00 0.00 0.00 0.00
0.00 0.00 0.00 0.00 0.00 0.00 0.00 0.00 0.00 0.00 0.00 0.00 0.00 0.00 0.00 0.00 0.00 0.00 0.00 0.00 0.00 0.00 0.00 0.00 0.00 0.00 0.00
0.00 0.00 0.00 0.00 0.00 0.00 0.00 0.00 0.00 0.00 0.00 0.00 0.00 0.00 0.00 0.00 0.00 0.00 0.00 0.00 0.00 0.00 0.00 0.00 0.00 0.00 0.00
0.00 0.00 0.00 0.00 0.00 0.00 0.00 0.00 0.00 0.00 0.00 0.00 0.00 0.00 0.00 0.00 0.00 0.00 0.00 0.00 0.00 0.00 0.00 0.00 0.00 0.00 0.00
0.00 0.00 0.00 0.00 0.00 0.00 0.00 0.00 0.00 0.00 0.00 0.00 0.00 0.00 0.00 0.00 0.00 0.00 0.00 0.00 0.00 0.00 0.00 0.00 0.00 0.00 0.00
0.00 0.00 0.00 0.00 0.00 0.00 0.00 0.00 0.00 0.00 0.00 0.00 0.00 0.00 0.00 0.00 0.00 0.00 0.00 0.00 0.00 0.00 0.00 0.00 0.00 0.00 0.00
0.00 0.00 0.00 0.00 0.00 0.00 0.00 0.00 0.00 0.00 0.00 0.00 0.00 0.00 0.00 0.00 0.00 0.00 0.00 0.00 0.00 0.00 0.00 0.00 0.00 0.00 0.00
0.00 0.00 0.00 0.00 0.00 0.00 0.00 0.00 0.00 0.00 0.00 0.00 0.00 0.00 0.00 0.00 0.00 0.00 0.00 0.00 0.00 0.00 0.00 0.00 0.00 0.00 0.00
0.00 0.00 0.00 0.00 0.00 0.00 0.00 0.00 0.00 0.00 0.00 0.00 0.00 0.00 0.00 0.00 0.00 0.00 0.00 0.00 0.00 0.00 0.00 0.00 0.00 0.00 0.00
0.00 0.00 0.00 0.00 0.00 0.00 0.00 0.00 0.00 0.00 0.00 0.00 0.00 0.00 0.00 0.00 0.00 0.00 0.00 0.00 0.00 0.00 0.00 0.00 0.00 0.00 0.00
0.00 0.00 0.00 0.00 0.00 0.00 0.00 0.00 0.00 0.00 0.00 0.00 0.00 0.00 0.00 0.00 0.00 0.00 0.00 0.00 0.00 0.00 0.00 0.00 0.00 0.00 0.00
0.00 0.00 0.00 0.00 0.00 0.00 0.00 0.00 0.00 0.00 0.00 0.00 0.00 0.00 0.00 0.00 0.00 0.00 0.00 0.00 0.00 0.00 0.00 0.00 0.00 0.00 0.00
0.00 0.00 0.00 0.00 0.00 0.00 0.00 0.00 0.00 0.00 0.00 0.00 0.00 0.00 0.00 0.00 0.00 0.00 0.00 0.00 0.00 0.00 0.00 0.00 0.00 0.00 0.00
MSLP
1034.97 1035.40 1035.96 1036.19 1036.43 1036.49 1036.50 1036.71 1036.75 1036.56 1036.39 1036.33 1036.16 1036.06 1035.88 1035.75 1035.70 1035.61 1035.23 1034.87 1034.59 1034.17 1033.69 1033.20 1032.59 1032.07 1031.51
1035.02 1035.31 1035.71 1036.13 1036.41 1036.54 1036.43 1036.54 1036.70 1036.63 1036.41 1036.29 1036.15 1036.03 1035.87 1035.81 1035.76 1035.63 1035.29 1034.98 1034.72 1034.39 1033.85 1033.39 1032.69 1032.05 1031.45
1034.46 1035.11 1035.80 1036.15 1036.45 1036.53 1036.70 1036.88 1036.68 1036.68 1036.56 1036.36 1036.11 1035.99 1035.85 1035.84 1035.82 1035.62 1035.29 1034.85 1034.66 1034.24 1033.75 1033.10 1032.66 1032.17 1031.55
1034.12 1035.07 1035.59 1036.11 1036.48 1036.81 1037.10 1037.38 1037.39 1036.98 1036.85 1036.63 1036.41 1036.30 1036.08 1035.93 1035.88 1035.67 1035.22 1034.89 1034.53 1034.10 1033.64 1033.14 1032.66 1032.19 1031.57
1034.12 1035.09 1035.67 1036.13 1036.44 1036.62 1037.10 1037.49 1037.79 1037.82 1037.49 1037.32 1037.07 1036.83 1036.57 1036.50 1036.11 1035.55 1035.29 1034.92 1034.60 1034.15 1033.64 1033.10 1032.61 1032.09 1031.43
1033.75 1034.53 1035.32 1035.67 1036.07 1036.47 1036.85 1037.48 1037.81 1037.70 1037.73 1037.40 1037.25 1037.10 1036.92 1036.57 1036.05 1035.71 1035.34 1034.95 1034.51 1034.15 1033.61 1033.11 1032.52 1031.92 1031.25
1032.89 1034.02 1035.00 1035.27 1035.70 1036.43 1036.74 1037.12 1037.47 1037.61 1037.63 1037.49 1037.29 1037.12 1036.91 1036.65 1036.09 1035.86 1035.39 1034.96 1034.49 1034.06 1033.59 1033.16 1032.53 1031.79 1031.02
1032.72 1033.87 1034.45 1035.15 1035.43 1035.67 1036.35 1037.00 1037.38 1037.64 1037.64 1037.62 1037.47 1037.22 1036.88 1036.66 1036.23 1035.80 1035.42 1035.00 1034.49 1033.89 1033.41 1032.92 1032.35 1031.59 1030.90
1033.36 1033.89 1034.50 1035.07 1035.47 1035.85 1036.55 1037.17 1037.75 1037.87 1037.88 1037.79 1037.70 1037.23 1036.72 1036.60 1036.34 1035.77 1035.36 1034.95 1034.36 1033.83 1033.27 1032.67 1032.15 1031.42 1031.03
1034.42 1034.80 1035.16 1035.35 1035.58 1035.99 1036.54 1036.86 1037.44 1037.83 1037.89 1037.97 1037.95 1037.77 1037.17 1036.38 1036.04 1035.70 1035.34 1034.80 1034.37 1033.95 1033.36 1032.68 1031.93 1031.31 1030.81
1035.29 1035.75 1035.92 1036.12 1036.40 1036.72 1036.81 1036.74 1037.33 1037.54 1037.66 1037.96 1038.27 1038.15 1038.06 1037.39 1036.20 1035.61 1035.48 1034.93 1034.55 1034.05 1033.41 1032.66 1031.95 1031.42 1030.71
1035.47 1035.97 1036.21 1036.41 1036.89 1037.10 1037.13 1037.15 1037.06 1037.19 1037.44 1037.65 1038.39 1038.39 1038.22 1037.70 1036.90 1035.78 1035.37 1035.07 1034.65 1034.11 1033.45 1032.73 1031.98 1031.52 1031.02
1035.36 1035.84 1036.23 1036.61 1036.88 1037.11 1037.08 1037.14 1037.18 1037.26 1037.21 1037.35 1037.79 1038.03 1037.76 1037.61 1037.22 1036.38 1036.02 1035.04 1034.48 1034.11 1033.47 1032.89 1032.12 1031.37 1030.48
1035.24 1035.90 1036.41 1036.73 1037.05 1037.11 1037.49 1037.45 1037.44 1037.52 1037.14 1037.09 1037.31 1037.34 1037.22 1036.96 1036.80 1036.32 1036.11 1035.84 1034.49 1034.19 1033.56 1032.77 1031.91 1031.21 1030.44
1035.39 1036.10 1036.73 1037.05 1037.25 1037.34 1037.59 1037.88 1037.99 1037.98 1037.75 1037.49 1037.17 1036.99 1036.73 1036.54 1036.41 1035.95 1035.76 1035.28 1034.63 1033.95 1033.23 1032.47 1031.58 1030.69 1029.85
1035.80 1036.37 1036.74 1037.18 1037.43 1037.67 1037.97 1038.13 1038.50 1038.20 1038.01 1037.98 1037.77 1037.31 1036.86 1036.22 1035.89 1035.83 1035.39 1035.06 1034.39 1033.73 1033.23 1032.54 1031.03 1030.10 1029.41
1036.06 1036.52 1036.97 1037.38 1037.73 1037.96 1038.15 1038.33 1038.48 1038.16 1038.04 1038.07 1037.96 1037.80 1037.70 1037.38 1036.27 1035.52 1035.50 1034.78 1034.23 1033.60 1033.11 1032.60 1031.59 1030.14 1029.39
Thickness
5529 5523 5517 5511 5507 5502 5498 5494 5488 5482 5478 5472 5467 5462 5456 5450 5444 5437 5435 5431 5426 5422 5420 5417 5415 5411 5409
5521 5517 5512 5505 5500 5496 5490 5485 5479 5472 5467 5462 5457 5451 5445 5439 5433 5427 5423 5419 5414 5410 5407 5404 5400 5396 5392
5518 5511 5504 5498 5492 5487 5481 5475 5468 5462 5457 5452 5447 5441 5435 5428 5422 5417 5412 5409 5404 5400 5397 5393 5387 5381 5376
5513 5503 5497 5490 5484 5476 5469 5462 5455 5451 5446 5440 5435 5429 5423 5418 5412 5406 5402 5397 5393 5388 5384 5379 5372 5365 5360
5504 5495 5488 5481 5475 5468 5459 5450 5442 5437 5433 5427 5423 5418 5411 5404 5398 5394 5389 5384 5378 5374 5370 5365 5357 5350 5345
5497 5491 5480 5474 5467 5459 5451 5439 5432 5427 5421 5415 5410 5405 5398 5392 5385 5380 5375 5370 5365 5360 5355 5349 5342 5336 5330
5496 5484 5472 5466 5459 5448 5440 5431 5423 5416 5410 5403 5399 5394 5387 5381 5373 5367 5362 5356 5351 5346 5340 5333 5328 5322 5315
5488 5475 5467 5457 5450 5443 5432 5423 5415 5406 5399 5390 5386 5381 5376 5369 5361 5355 5349 5343 5338 5333 5328 5322 5315 5308 5299
5469 5461 5452 5444 5438 5431 5420 5411 5400 5395 5389 5382 5373 5366 5363 5357 5350 5343 5338 5331 5326 5320 5315 5309 5303 5296 5282
5452 5445 5438 5433 5427 5420 5411 5402 5394 5385 5379 5372 5363 5354 5345 5345 5340 5333 5327 5322 5315 5308 5301 5294 5288 5283 5271
5437 5430 5424 5419 5413 5406 5400 5396 5385 5377 5368 5362 5350 5343 5332 5327 5327 5323 5317 5313 5305 5297 5287 5277 5269 5260 5257
5424 5417 5412 5407 5400 5393 5388 5382 5376 5369 5360 5350 5340 5331 5323 5318 5316 5317 5307 5301 5295 5287 5275 5264 5254 5245 5233
5415 5409 5403 5396 5389 5383 5378 5371 5364 5356 5349 5340 5331 5322 5316 5311 5307 5304 5300 5293 5284 5275 5264 5250 5244 5239 5237
5407 5400 5392 5385 5379 5373 5366 5360 5353 5344 5337 5330 5321 5313 5308 5304 5299 5293 5284 5274 5273 5262 5255 5241 5231 5227 5221
5398 5389 5380 5374 5368 5361 5354 5346 5337 5330 5324 5319 5312 5306 5303 5298 5287 5283 5274 5266 5257 5251 5247 5242 5228 5222 5216
5384 5378 5371 5364 5356 5349 5342 5333 5323 5318 5312 5307 5302 5298 5291 5283 5280 5273 5264 5257 5249 5242 5235 5231 5230 5222 5212
5373 5367 5360 5352 5344 5336 5329 5320 5313 5308 5305 5299 5292 5288 5273 5268 5261 5259 5254 5248 5243 5234 5228 5220 5215 5215 5206